Location: Elstree
(51.6403°N, 0.2969°W)
Time: 15:40:03
(UTC+00:00)

SJ 16-02 - Pass Details

Date: 26 June 2021
Orbit: 606 x 616 km, 75.0° (Epoch: 29 July)

Event Time Altitude Azimuth Distance (km) Brightness Sun altitude
Rises 00:22:49 0° 318° (NW) 2,875 5.5 -14.9°
Reaches altitude 10° 00:27:17 10° 275° (W) 1,962 3.9 -14.8°
Maximum altitude 00:27:48 10° 269° (W) 1,949 3.8 -14.8°
Drops below altitude 10° 00:28:18 10° 262° (W) 1,960 3.8 -14.8°
Enters shadow 00:29:51 - 243° (WSW) 2,131 3.8 -14.8°
